Zurück zum Katalog

STARLINK-34965

AktivKommunikationSSO
NORAD 65186·PAYLOAD·🇺🇸 United States

Gestartet Aug 14, 2025 von Vandenberg Space Force Base

Loading…

Nächste Überflüge (nächste 24 Stunden)

TLE

AktuellSource: CelesTrak SupGP

Epoche: Sep 14, 2026, 22:40 UTC

1 65186C 25175N   26257.94493056  .00062869  00000+0  19514-2 0  2577
2 65186  97.2845 127.0655 0001569  98.1899 332.6037 15.33410440    14

Verfolge STARLINK-34965 in Echtzeit mit AllMySat

Download on the App Store